Location: Aula-Vintri
(58.3875°N, 22.4322°E)
Time: 00:08:38
(UTC+00:00)

Cosmos 1833 Rocket - Pass Details

Date: 13 October 2019
Orbit: 833 x 839 km, 71.0° (Epoch: 19 November)

Event Time Altitude Azimuth Distance (km) Brightness Sun altitude
Rises 17:54:14 0° 322° (NW) 3,394 6.8 -19.3°
Reaches altitude 10° 17:56:41 10° 320° (NW) 2,457 5.9 -19.6°
Maximum altitude 18:02:17 70° 239° (WSW) 893 2.9 -20.3°
Enters shadow 18:05:35 25° 161° (SSE) 1,622 3.8 -20.8°
